This demonstration page uses our WeatherBlox Daily Observations layout. Learn more.

Left ArrowRight Arrow

41.86663, -103.66717

Hourly Observations for March 21, 2018

Temp ( °F °C ) Dew Point ( °F °C ) Humidity (%) Winds ( mph kmh ) Pressure ( in mb ) Visibility ( mi km ) Precip ( " mm )
12:53 am 00:53 Clear 28 -2.2 23 -5 81 81 E 9 15 30.04 1017 10 16 N/A
1:53 am 01:53 Clear 28 -2.2 23 -5 81 81 E 10 17 30.02 1017 10 16 N/A
2:53 am 02:53 Clear 27 -2.8 23 -5 85 85 ESE 10 17 30.01 1016 10 16 N/A
3:53 am 03:53 Clear 26 -3.3 23 -5 88 88 E 6 9 30.00 1016 10 16 N/A
4:53 am 04:53 Clear 26 -3.3 22 -5.6 84 84 ENE 5 7 30.01 1016 10 16 N/A
5:53 am 05:53 Clear 25 -3.9 21 -6.1 85 85 NE 6 9 30.04 1017 10 16 N/A
6:53 am 06:53 Clear 22 -5.6 20 -6.7 92 92 WNW 3 6 30.07 1018 10 16 N/A
7:53 am 07:53 Cloudy 30 -1.1 25 -3.9 82 82 N N/A 30.08 1019 10 16 N/A
8:53 am 08:53 Cloudy 33 0.6 28 -2.2 82 82 NW 6 9 30.09 1019 10 16 N/A
9:53 am 09:53 Cloudy 40 4.4 29 -1.7 65 65 W 3 6 30.06 1018 10 16 N/A
10:53 am 10:53 Mostly Sunny 47 8.3 29 -1.7 50 50 NW 6 9 30.05 1018 10 16 N/A
11:53 am 11:53 Sunny 52 11.1 30 -1.1 43 43 W 9 15 30.02 1017 10 16 N/A
12:53 pm 12:53 Sunny 55 12.8 26 -3.3 33 33 N 6 9 30.01 1016 10 16 N/A
1:53 pm 13:53 Sunny 57 13.9 28 -2.2 33 33 VRB 5 7 29.98 1015 10 16 N/A
2:53 pm 14:53 Sunny 58 14.4 29 -1.7 33 33 VRB 5 7 29.96 1014 10 16 N/A
3:53 pm 15:53 Mostly Sunny 60 15.6 27 -2.8 28 28 N N/A 29.94 1014 10 16 N/A
4:53 pm 16:53 Cloudy 61 16.1 28 -2.2 29 29 S 6 9 29.93 1014 10 16 N/A
5:53 pm 17:53 Mostly Cloudy 59 15 29 -1.7 32 32 SE 6 9 29.94 1014 10 16 N/A
6:53 pm 18:53 Cloudy 54 12.2 32 undefined 43 43 E 7 11 29.98 1015 10 16 N/A
7:53 pm 19:53 Cloudy 54 12.2 29 -1.7 38 38 ENE 3 6 29.98 1015 10 16 N/A
8:53 pm 20:53 Cloudy 51 10.6 32 undefined 48 48 N N/A 30.00 1016 10 16 N/A
9:53 pm 21:53 Cloudy 49 9.4 33 0.6 55 55 ENE 5 7 30.00 1016 10 16 N/A
10:53 pm 22:53 Cloudy 46 7.8 34 1.1 63 63 NNE 3 6 29.99 1016 10 16 N/A
11:53 pm 23:53 Partly Cloudy 41 5 31 -0.6 67 67 NNE 3 6 30.00 1016 10 16 N/A

Powered by AerisWeather